Regional Weather Roundup
Issued by NWS Green Bay, WI

Home | Current Version | Previous Version | Graphics & Text | Print | Product List | Glossary Off
Versions: 1 2 3 4 5 6 7 8 9 10 11 12 13 14 15 16 17 18 19 20 21 22 23 24 25 26 27 28 29 30 31 32 33 34 35 36 37 38 39 40 41 42 43 44 45 46 47 48 49 50

000
ASUS43 KGRB 020200
RWRGRB

NORTH-CENTRAL AND NORTHEAST WISCONSIN REGIONAL WEATHER ROUNDUP
NATIONAL WEATHER SERVICE GREEN BAY WI
800 PM CST THU DEC 01 2016

WIZ005-009-010>012-018-019-020300-
NORTH CENTRAL WISCONSIN

CITY           SKY/WX    TMP DP  RH WIND       PRES   REMARKS
IRONWOOD       FLURRIES  28  26  92 W6        29.90R
MANITOWISH WTR NOT AVBL
ARBOR VITAE    NOT AVBL
EAGLE RIVER    NOT AVBL
LAND O LAKES   NOT AVBL
RHINELANDER    CLOUDY    30  24  78 N8G17     29.86R
PHILLIPS       LGT SNOW  28  27  96 NW7       29.88R
ANTIGO         NOT AVBL
TOMAHAWK       NOT AVBL
MERRILL        CLOUDY    32  25  74 NW9       29.88S
$$

WIZ013-073-020300-
NORTHEAST WISCONSIN

CITY           SKY/WX    TMP DP  RH WIND       PRES   REMARKS
IRON MOUNTAIN  CLOUDY    31  24  75 NW10      29.82R
MARINETTE      CLOUDY    36  24  62 NW8G16    29.86R
$$

WIZ017-030-035>037-045-020300-
CENTRAL WISCONSIN

CITY           SKY/WX    TMP DP  RH WIND       PRES   REMARKS
MEDFORD        NOT AVBL
WAUSAU         CLOUDY    32  26  78 NW8       29.88R
MOSINEE        CLOUDY    32  28  86 NW9       29.89R
MARSHFIELD     CLOUDY    32  26  78 NW9       29.89R
WISC RAPIDS    CLOUDY    35  30  82 NW12      29.91R
STEVENS POINT  NOT AVBL
WAUPACA        CLOUDY    36  32  84 W8        29.89R
SHAWANO        CLOUDY    37  26  64 NW8       29.88R
CLINTONVILLE   CLOUDY    34  30  86 NW8       29.88R
WAUTOMA        CLOUDY    36  31  82 W9        29.91R
$$

WIZ038-039-048-051-020300-
FOX VALLEY

CITY           SKY/WX    TMP DP  RH WIND       PRES   REMARKS
NWS GREEN BAY  CLOUDY    39  32  76 W8        29.87R
APPLETON       DRIZZLE   36  32  87 W8        29.86R
OSHKOSH        CLOUDY    37  32  82 W7        29.88R
FOND DU LAC    CLOUDY    38  31  76 W10       29.89R
$$

WIZ022-050-052-020300-
EAST CENTRAL WISCONSIN

CITY           SKY/WX    TMP DP  RH WIND       PRES   REMARKS
EPHRAIM        CLOUDY    35  25  68 NW12      29.83R
WASHINGTON ISL CLOUDY    35  24  63 NW10G18   29.83R
STURGEON BAY   CLOUDY    37  27  67 NW12      29.85R
MANITOWOC      CLOUDY    37  34  87 W8        29.87R
SHEBOYGAN      CLOUDY    38  33  82 W12       29.88R
$$

LMZ563-521-522-541>543-020300-
LAKESHORE

STATION/POSITION TIME  TEMP    WIND        PRES    VSBY  WAVE
                       AIR SEA DIR/SP/G                  HT/PER
                 (UTC) (F)     (DEG/KT/KT) (MB)    (MI)  (FT/S)
SHEBOYGAN LKSHOR 0100   39     270/ 11/ 13 1011.5R
KEWAUNEE LKSHORE 0100   39     300/  3/  5 1010.1
ALGOMA MARINA    0051          310/  8/ 11   N/A
NORTHPORT PIER   0107   38     310/ 21/ 25 1009.5
MENOMINEE LKSHOR 0100   37     290/  9/ 13 1009.7
$$




USA.gov is the U.S. government's official web portal to all federal, state and local government web resources and services.